Powrót do katalogu

CZ-6A DEB

AktywnySSO
NORAD 56645·DEBRIS·🇨🇳 China

Wystrzelony Nov 11, 2022 z Taiyuan Satellite Launch Center

Loading…

Następne Przeloty (najbliższe 24 godziny)

TLE

Starzejące sięSource: Space-Track

Epoka: Sep 5, 2026, 05:58 UTC

1 56645U 22151AFV 26248.24861780  .00000908  00000-0  45172-3 0  9994
2 56645  98.8037 254.6128 0042276 110.8287 249.7424 14.19026488174297

Śledź CZ-6A DEB w czasie rzeczywistym z AllMySat

Download on the App Store